sat.trackr.live / text

‹ back to catalog

TIANQI-27

NORAD 59911 · 2024-102C

PAYLOAD ACTIVE UNKNOWN

§ Identity

Operator
Country
PRC
Launch date
2024-05-29
Launch site
YSLA
Launch vehicle
Mass (kg)
RCS (m²)

External: N2YO · Heavens-Above · Gunter

§ Orbital elements

Epoch: 2026-09-22T20:48:59.703552Z

Period
102.92 min
Inclination
44.9774°
Eccentricity
0.0008114
Mean motion
13.99177901 rev/d
Perigee alt
890.7 km
Apogee alt
902.5 km
Semi-major
7,274.8 km
B*
9.9378e-5
RAAN
186.7973°
Arg perigee
350.1224°
Mean anomaly
9.9448°
Rev number
11,858

§ Raw data

TIANQI-271 59911U 24102C   26265.86735768  .00000016  00000+0  99378-4 0  99912 59911  44.9774 186.7973 0008114 350.1224   9.9448 13.99177901118588

JSON: /api/v1/satellites/59911 · /tle

For live sub-satellite position, see the globe view (requires WebGL).

§ Visibility from observer

Set your observer location to see the next 7 days of passes ≥ 10°. The values pass through the URL so the page stays shareable.

No JS? Fill the form by hand. The geolocation button needs JavaScript.